Dewpoint
23 36 50 51 50 43 48 43 42 40 42 41 46 47 47 47 44 42 51 48 52 53 53 55 58 57 56 58 60 63 63 61 60 60 59 56 55 56 58 60 61 63 64 64 64 65 65 65 66 67 69 70 71 71 71 72 72 73 73 74 74 74 75
36 27 37 48 48 48 45 42 42 44 46 43 42 38 45 41 37 38 48 43 46 47 43 59 57 56 56 57 57 59 62 64 59 59 61 60 57 58 60 62 63 63 64 64 65 65 66 65 65 67 70 70 71 71 71 71 72 73 72 73 72 73 74
36 46 48 46 46 41 43 44 44 39 43 37 44 40 36 36 34 35 42 46 46 48 46 55 55 55 55 57 58 58 59 60 59 59 61 61 58 57 59 61 63 63 64 64 65 65 66 67 67 68 69 70 70 70 70 71 71 71 71 71 71 73 73
27 34 47 44 49 38 43 44 42 46 47 48 40 41 40 39 37 37 33 44 36 50 48 54 55 56 56 57 57 58 58 58 58 59 60 61 61 59 59 61 63 63 62 64 65 66 66 67 67 68 69 68 68 69 70 71 71 72 72 71 72 72 72
29 29 30 30 31 39 36 35 39 39 41 49 40 45 37 37 38 37 35 34 36 48 55 58 58 57 58 57 57 58 58 58 59 59 59 62 63 60 60 61 62 63 63 62 64 66 66 67 67 67 68 68 68 68 69 71 71 70 70 71 73 73 72
27 28 27 31 30 30 30 35 39 41 35 36 34 38 38 37 35 34 35 33 37 51 59 59 58 58 58 58 57 56 57 59 60 60 59 60 63 63 60 59 60 62 64 64 64 66 65 65 67 68 68 68 69 69 68 69 68 70 70 72 74 74 74
26 29 30 34 34 36 48 47 46 46 37 35 33 31 35 38 37 40 42 37 37 55 59 60 59 60 59 59 58 57 57 58 59 60 60 62 63 64 62 60 60 62 64 65 65 66 65 66 66 67 67 68 69 70 71 71 70 71 71 72 75 75 75
32 35 34 35 34 36 39 45 50 49 44 46 38 36 39 33 42 41 40 38 39 56 60 60 59 62 62 61 58 58 58 59 60 63 62 63 64 65 64 62 62 64 64 66 67 66 67 67 68 67 68 69 70 71 72 72 72 73 73 74 75 75 75
27 28 33 34 40 40 41 42 49 51 51 51 51 50 45 38 37 38 34 31 35 55 59 60 60 61 62 62 62 61 61 64 64 64 65 64 65 65 65 64 62 63 64 66 67 68 68 68 68 68 69 70 70 71 72 71 72 73 73 74 74 75 75
19 23 24 26 34 39 42 45 48 51 50 49 43 36 42 34 43 44 38 36 47 56 58 59 59 60 61 63 63 64 64 64 65 66 66 66 66 65 66 66 64 63 64 66 67 68 68 69 69 69 69 69 70 71 71 72 72 74 74 74 74 74 75
24 30 40 41 43 42 36 40 47 49 51 49 41 40 37 34 44 39 44 45 48 54 55 57 59 60 60 62 62 62 63 64 65 66 66 67 66 66 67 67 66 66 65 64 66 68 68 69 69 69 70 70 71 72 72 72 72 73 74 74 74 74 74
34 33 40 39 43 40 42 41 43 50 50 50 49 45 44 51 46 34 50 53 51 53 56 56 58 59 61 62 63 63 63 64 64 65 66 66 67 67 67 67 66 65 65 66 66 67 68 69 70 69 70 70 71 72 71 72 73 73 72 73 74 74 74
37 37 40 41 46 46 46 46 48 47 51 48 48 51 51 51 42 38 51 54 52 54 57 57 59 60 61 62 63 64 64 64 64 65 65 65 65 66 66 67 67 67 66 67 67 67 68 69 69 70 70 71 72 72 73 73 73 73 74 74 74 73 74
35 36 37 42 44 45 45 48 49 50 50 50 50 50 52 51 52 52 54 54 55 57 58 59 60 62 62 62 64 64 64 64 64 64 63 65 65 66 66 66 66 67 67 67 68 69 69 69 69 70 71 71 72 72 72 73 73 74 75 75 75 74 75
32 35 38 42 42 44 41 44 47 50 51 51 51 50 51 53 53 52 53 54 54 58 60 61 62 62 63 63 63 64 64 64 64 63 63 64 65 65 66 66 67 68 68 68 69 69 69 69 70 70 71 72 72 72 73 74 74 75 74 74 74 75 75
31 34 37 37 40 40 40 39 42 48 49 46 51 50 52 52 52 54 53 52 53 58 61 61 62 62 62 62 62 63 64 64 64 63 63 64 65 66 66 66 67 68 68 68 69 69 70 70 70 71 71 71 72 72 73 73 74 75 74 74 74 74 75
28 36 38 41 40 36 33 33 40 49 50 52 52 52 54 54 54 52 50 51 56 59 60 59 59 59 60 61 61 62 63 65 65 64 65 66 66 67 67 67 67 67 68 68 69 69 69 70 70 71 71 71 71 72 72 74 74 74 74 74 73 73 72
28 34 37 42 33 29 29 50 50 51 51 52 51 52 53 55 55 54 55 56 57 57 59 58 58 58 59 60 62 63 63 63 64 65 65 65 65 66 67 67 67 67 68 69 69 69 69 69 70 70 71 71 72 73 72 73 73 73 73 72 72 71 71
25 36 37 30 23 26 46 47 50 54 52 53 51 53 53 54 56 56 55 56 56 57 57 58 58 60 60 60 60 61 62 63 63 63 62 63 64 64 64 65 65 66 67 67 68 68 69 70 70 70 70 71 71 71 71 71 72 72 72 71 71 71 71
35 30 30 22 22 40 44 45 45 52 53 51 50 50 52 55 55 57 56 56 56 57 58 59 60 59 59 60 61 61 62 62 62 62 62 62 62 62 63 63 63 64 64 64 65 66 67 68 69 69 69 70 70 70 71 70 70 70 70 70 70 70 69
29 31 31 26 41 39 41 43 45 47 48 49 48 45 47 53 55 56 56 56 56 57 59 59 59 59 59 58 59 61 62 62 62 62 61 62 62 62 62 63 63 64 64 64 64 65 65 65 66 67 68 69 69 69 69 69 70 70 69 68 68 69 68
37 39 36 30 29 27 32 46 46 49 49 47 48 48 46 53 55 57 56 56 56 57 58 59 59 58 58 56 57 60 62 62 61 61 61 61 61 61 61 62 62 63 64 64 64 64 64 64 64 65 66 66 66 66 66 67 67 66 66 67 68 67 67
36 35 31 32 28 26 41 44 46 48 48 47 51 45 40 51 56 56 56 55 57 58 58 58 58 58 55 55 57 60 61 61 61 61 61 60 61 61 61 61 62 62 62 63 63 63 62 62 63 65 65 65 65 63 64 64 64 63 63 64 64 65 66
36 34 32 28 36 25 46 47 45 45 49 49 46 39 36 49 56 56 56 56 56 58 58 58 57 57 55 55 57 61 61 61 61 61 60 60 60 60 60 60 61 61 62 62 62 62 62 62 63 63 63 63 62 62 62 62 62 61 61 62 63 64 65
39 36 34 34 35 42 46 46 47 49 50 46 40 36 41 53 56 57 56 56 57 58 58 57 57 57 60 60 61 61 60 60 60 60 59 59 59 58 58 58 60 59 60 60 60 61 61 62 62 62 62 62 61 61 60 60 59 60 60 61 60 60 61
33 37 31 30 35 40 44 47 48 51 46 39 39 48 53 55 57 57 57 57 57 58 58 57 58 60 60 61 60 59 58 57 58 57 57 56 56 57 59 59 59 59 59 59 59 60 59 58 59 60 60 60 60 60 59 59 59 60 59 59 60 60 60
37 39 33 32 25 43 46 49 48 48 43 42 48 53 57 58 58 57 58 58 58 58 57 59 60 60 59 58 57 56 55 55 55 55 55 54 55 57 58 57 58 57 58 58 58 59 60 60 59 59 59 60 59 59 58 59 60 60 60 60 59 59 59
31 35 32 29 34 48 49 49 43 48 50 53 53 55 56 58 57 58 57 58 58 57 57 59 60 59 59 58 56 55 55 55 55 55 55 55 55 55 54 55 55 56 56 57 57 58 59 60 61 61 59 59 60 59 59 59 59 59 59 60 60 60 61
36 36 38 45 49 49 51 51 51 51 54 56 57 57 58 57 57 60 58 59 59 58 58 59 59 58 58 56 54 54 54 54 54 54 55 55 55 54 54 54 56 55 54 55 55 56 56 57 58 59 58 58 58 58 60 60 59 59 60 60 60 59 58
45 47 48 49 50 51 52 52 54 55 56 55 56 57 57 58 58 59 59 59 58 59 60 58 59 58 58 56 54 54 53 53 55 56 56 56 56 55 55 55 55 54 54 55 55 55 56 56 57 59 58 58 59 60 61 60 59 59 59 60 60 59 59
39 38 50 50 51 52 52 53 53 55 56 57 57 57 57 58 58 59 60 61 60 60 60 59 58 58 57 56 54 54 54 54 55 55 56 57 58 58 57 57 57 56 55 54 54 54 55 56 55 56 58 58 61 62 61 59 59 61 61 61 61 60 60
41 45 50 50 51 53 54 53 54 54 55 57 57 57 57 57 57 58 58 59 61 60 59 59 58 57 57 56 56 55 55 55 56 57 57 58 58 58 59 59 59 57 56 55 55 56 57 57 57 57 58 58 60 61 61 59 59 60 60 60 59 59 58
46 48 49 50 51 52 53 55 56 56 56 56 58 58 56 56 57 59 59 59 59 60 61 59 58 57 56 55 55 54 55 56 57 58 58 59 59 58 58 58 59 58 57 56 56 56 56 57 57 58 59 59 59 59 59 60 61 60 59 59 57 53 53
42 42 48 50 46 46 50 53 55 56 57 57 57 58 57 58 58 59 59 59 60 59 60 60 57 58 57 56 56 54 54 56 57 58 57 57 57 58 58 58 58 58 59 58 58 58 58 58 58 58 58 58 57 55 56 56 58 59 59 56 55 54 53
36 48 51 53 54 52 53 55 55 57 58 58 58 58 58 58 58 58 58 59 59 59 59 59 59 59 59 58 56 56 56 57 57 57 56 55 55 56 57 57 58 58 59 59 58 58 58 58 56 56 57 57 57 55 59 59 57 59 58 57 55 54 57
45 48 51 52 52 49 52 55 56 58 59 59 57 58 58 59 59 58 58 58 57 58 59 59 59 59 60 58 56 56 56 56 57 56 55 55 55 55 56 58 58 58 58 59 59 59 59 57 56 56 54 56 57 53 58 59 59 59 58 57 56 54 53
44 49 52 53 54 53 54 55 56 57 59 60 58 59 59 59 58 58 58 57 58 57 57 58 59 60 60 60 58 57 57 57 58 58 59 58 57 56 55 56 59 59 59 59 59 59 59 58 58 57 56 57 57 56 58 57 56 57 58 55 52 53 55